Flag for France Weather past 2 weeks in Strasbourg, France

Now
37 °F

Mostly cloudy.


Feels Like: 29 °F
Forecast: 24 / 33 °F
Wind: 14 mph from Northwest

Location: Strasbourg Airport

Current Time: Feb 2, 2015 at 3:12:30 AM

Latest Report: Feb 2, 2015 at 2:30 AM


Visibility: N/A

Pressure: 29.50 "Hg

Humidity: 81%

Dew point: 32 °F

Location of StrasbourgLocation

Historic Weather in Strasbourg — Graph

°F

Strasbourg temperature yesterday

Maximum temperature yesterday: 37 °F (at 2:30 PM)
Minimum temperature yesterday: 32 °F (at 8:00 AM)
Average temperature yesterday: 35 °F

Past Weeks' High & Low Weather Summary

 TemperatureHumidityPressure
High43 °F (Jan 28, 2:00 PM)100% (Jan 18, 1:30 AM)30.45 "Hg (Jan 18, 1:30 AM)
Low28 °F (Jan 18, 2:30 AM)70% (Jan 24, 2:00 PM)28.80 "Hg (Jan 30, 12:00 AM)
Average35 °F90%29.82 "Hg
* Reported Jan 18 1:00 AM — Feb 2 1:30 AM, Strasbourg, Weather by CustomWeather, © 2014

Note: Actual official high and low records may vary slightly from our data, if they occured in-between our weather recording intervals... More about our weather records

Advertising

Strasbourg weather history for previous 24 hours

 ConditionsComfort  
Time TempWeatherWind HumidityBarometerVisibility
1:30 AM
Feb 2
37 °FOvercast.15 mph81%29.47 "HgN/A
1:00 AM36 °FOvercast.10 mph93%29.47 "HgN/A
12:30 AM36 °FDrizzle. Overcast.9 mph93%29.45 "HgN/A
12:00 AM36 °FLight rain. Mostly cloudy.9 mph93%29.45 "HgN/A
11:30 PM
Feb 1
36 °FLight rain. Mostly cloudy.10 mph93%29.42 "HgN/A
11:00 PM36 °FPassing clouds.9 mph93%29.42 "HgN/A
10:30 PM36 °FMostly cloudy.12 mph93%29.42 "HgN/A
10:00 PM36 °FLight rain. Mostly cloudy.13 mph93%29.42 "HgN/A
9:30 PM36 °FLight rain. Mostly cloudy.12 mph87%29.42 "HgN/A
9:00 PM36 °FLight rain. Partly cloudy.10 mph87%29.42 "HgN/A
8:30 PM37 °FOvercast.12 mph81%29.42 "HgN/A
8:00 PM37 °FOvercast.13 mph81%29.42 "HgN/A
7:30 PM37 °FOvercast.12 mph81%29.42 "HgN/A
7:00 PM36 °FDrizzle. Mostly cloudy.12 mph87%29.42 "HgN/A
6:30 PM36 °FLight rain. Mostly cloudy.9 mph87%29.42 "HgN/A
6:00 PM37 °FMostly cloudy.8 mph81%29.42 "HgN/A
5:30 PM37 °FLight rain. Mostly cloudy.8 mph81%29.42 "HgN/A
5:00 PM37 °FMore clouds than sun.10 mph75%29.39 "HgN/A
4:30 PM37 °FOvercast.14 mph75%29.39 "HgN/A
4:00 PM37 °FOvercast.12 mph81%29.39 "HgN/A
3:30 PM37 °FBroken clouds.10 mph81%29.39 "HgN/A
3:00 PM37 °FMostly cloudy.13 mph87%29.36 "HgN/A
2:30 PM37 °FMostly cloudy.7 mph87%29.36 "HgN/A
2:00 PM36 °FMostly cloudy.7 mph93%29.36 "HgN/A
1:30 PM36 °FLight rain. Mostly cloudy.8 mph93%29.36 "HgN/A
1:00 PM36 °FLight rain. Mostly cloudy.9 mph93%29.33 "HgN/A
12:30 PM36 °FLight rain. Mostly cloudy.9 mph93%29.33 "Hg6 mi
12:00 PM36 °FLight snow. Partly sunny.8 mph87%29.33 "HgN/A
11:30 AM36 °FSnow. Fog.8 mph87%29.33 "Hg3 mi
11:00 AM36 °FLight snow. Mostly cloudy.7 mph87%29.30 "HgN/A
10:30 AM36 °FMostly cloudy.6 mph87%29.30 "HgN/A
10:00 AM34 °FMostly cloudy.7 mph93%29.30 "HgN/A
9:30 AM34 °FPartly sunny.5 mph93%29.30 "HgN/A
9:00 AM34 °FPartly sunny.2 mph93%29.27 "HgN/A
8:30 AM34 °FMostly cloudy.6 mph93%29.27 "HgN/A
8:00 AM32 °FMostly cloudy.3 mph100%29.27 "HgN/A
7:30 AM34 °FPartly cloudy.5 mph93%29.24 "HgN/A
7:00 AM34 °FPassing clouds.1 mph93%29.24 "HgN/A
6:30 AM34 °FPartly cloudy.2 mph93%29.21 "HgN/A
6:00 AM34 °FMostly cloudy.3 mph93%29.21 "HgN/A
5:30 AM34 °FLight rain. Passing clouds.3 mph93%29.21 "HgN/A
5:00 AM34 °FPassing clouds.3 mph93%29.18 "HgN/A
4:30 AM34 °FMostly cloudy.5 mph93%29.18 "HgN/A
3:30 AM34 °FLight rain. Passing clouds.8 mph93%29.18 "Hg5 mi
3:00 AM34 °FLight snow. Fog.10 mph93%29.18 "Hg2 mi
Weather by CustomWeather, © 2014

See weather overviewHow to use our weather pages